Flag for Germany Weather past 2 weeks in Hemer, North Rhine-Westphalia, Germany

Now
50 °F

Passing clouds.


Feels Like: 47 °F
Forecast: 37 / 60 °F
Wind: 8 mph from East

Location: Dortmund / Wickede


UV Index: 3 (Moderate)

Visibility: N/A


Pressure: 30.45 "Hg

Humidity: 43%

Dew point: 28 °F

Location of HemerLocation

Historic Weather in Hemer

°F

Hemer temperature yesterday

Maximum temperature yesterday: 48 °F (at 3:20 PM)
Minimum temperature yesterday: 37 °F (at 5:50 AM)
Average temperature yesterday: 44 °F

Past Weeks' High & Low Weather Summary

 TemperatureHumidityPressure
High72 °F (Apr 2, 2:20 PM)94% (Apr 5, 5:20 AM)30.45 "Hg (Apr 5, 5:20 AM)
Low30 °F (Apr 16, 5:20 AM)29% (Apr 2, 2:20 PM)29.62 "Hg (Apr 3, 5:20 AM)
Average54 °F66%29.99 "Hg
* Reported Apr 1 11:20 AM — Apr 16 11:50 AM, Hemer, Weather by CustomWeather, © 2014

Note: Actual official high and low records may vary slightly from our data, if they occured in-between our weather recording intervals... More about our weather records

Advertising

Historic Weather Conditions — Data for Previous 24 hours

 ConditionsComfort  
Time TempWeatherWind HumidityBarometerVisibility
11:50 AM
Apr 16
50 °FPassing clouds.8 mph50%30.45 "HgN/A
11:20 AM48 °FSunny.3 mph62%30.45 "Hg10 mi
10:50 AM46 °FSunny.3 mph62%30.45 "Hg10 mi
10:20 AM45 °FSunny.3 mph66%30.45 "Hg10 mi
9:50 AM45 °FSunny.3 mph66%30.45 "Hg10 mi
9:20 AM41 °FSunny.3 mph70%30.45 "Hg10 mi
8:50 AM37 °FSunny.3 mph81%30.45 "Hg10 mi
8:20 AM36 °FSunny.5 mph87%30.42 "Hg10 mi
7:50 AM34 °FSunny.6 mph87%30.42 "Hg10 mi
7:20 AM32 °FClear.6 mph87%30.42 "Hg10 mi
6:50 AM30 °FClear.6 mph93%30.42 "Hg10 mi
6:20 AM30 °FClear.6 mph93%30.42 "Hg10 mi
5:50 AM30 °FClear.6 mph86%30.39 "Hg10 mi
5:20 AM30 °FClear.5 mph86%30.39 "Hg10 mi
9:50 PM
Apr 15
43 °FPassing clouds.8 mph61%30.33 "HgN/A
9:20 PM43 °FPartly sunny.6 mph66%30.33 "HgN/A
8:50 PM45 °FPartly sunny.12 mph57%30.33 "HgN/A
8:20 PM45 °FPassing clouds.8 mph61%30.30 "HgN/A
7:50 PM45 °FSunny.12 mph61%30.30 "Hg10 mi
7:20 PM46 °FScattered clouds.10 mph57%30.30 "HgN/A
6:50 PM46 °FSunny.10 mph57%30.30 "Hg10 mi
6:20 PM46 °FSunny.13 mph57%30.30 "Hg10 mi
5:50 PM46 °FSunny.12 mph57%30.27 "Hg10 mi
5:20 PM48 °FSunny.13 mph50%30.30 "Hg10 mi
4:50 PM48 °FSunny.13 mph54%30.30 "Hg10 mi
4:20 PM46 °FSunny.12 mph62%30.30 "Hg10 mi
3:50 PM46 °FSunny.12 mph62%30.30 "Hg10 mi
3:20 PM48 °FSunny.12 mph58%30.30 "Hg10 mi
2:50 PM46 °FSunny.12 mph57%30.30 "Hg10 mi
2:20 PM46 °FScattered clouds.12 mph57%30.30 "HgN/A
1:50 PM45 °FScattered clouds.15 mph66%30.30 "HgN/A
1:20 PM45 °FPartly sunny.13 mph61%30.30 "HgN/A
Weather by CustomWeather, © 2014

See weather overview